Weather History for Douglas Bisbee, AZ

Change the Weather History Date:

Saturday, March 22, 2014

  Actual Average Record
Temperature  
Mean Temperature 63 °F 56 °F  
Max Temperature 79 °F 73 °F 86 °F (1997)
Min Temperature 46 °F 38 °F 22 °F (1952)
Degree Days  
Heating Degree Days 2 10  
Month to date heating degree days 196 248  
Since 1 July heating degree days 2160 2284  
Cooling Degree Days 0 0  
Month to date cooling degree days 0 0  
Year to date cooling degree days 0 0  
Growing Degree Days 12 (Base 50)    
Moisture  
Dew Point 14 °F    
Average Humidity 18    
Maximum Humidity 29    
Minimum Humidity 7    
Precipitation  
Precipitation 0.00 in 0.02 in 0.45 in (2007)
Month to date precipitation 0.44 0.40  
Year to date precipitation 0.44 1.79  
Sea Level Pressure  
Sea Level Pressure 29.89 in    
Wind  
Wind Speed 11 mph (SSW)    
Max Wind Speed 31 mph    
Max Gust Speed 38 mph    
Visibility 10 miles    
Events      
T = Trace of Precipitation, MM = Missing Value Source: NWS Daily Summary

Daily Weather History Graph

Daily Weather History Graph

Search for Another Location

Airport:

Trip Planner

Search our weather history database for the weather conditions in past years. The results will help you decide how hot, cold, wet, or windy it might be!

Date:

Astronomy

Mar. 22, 2014 Rise Set
Actual Time 6:19 AM MST 6:31 PM MST
Civil Twilight 5:55 AM MST 6:55 PM MST
Nautical Twilight 5:27 AM MST 7:23 PM MST
Astronomical Twilight 4:58 AM MST 7:52 PM MST
Moon No Moon Rise 10:24 AM MST (3/22)
Length of Visible Light 13h 00m
Length of Day
12h 11m
Waning Gibbous, 64% of the Moon is Illuminated
Mar 22
Waning Gibbous
Mar 23
Last Quarter
Mar 30
New
Apr 7
First Quarter
Apr 15
Full

Hourly Weather History & Observations

Time (MST) Temp. Windchill Dew Point Humidity Pressure Visibility Wind Dir Wind Speed Gust Speed Precip Events Conditions
12:56 AM 55.9 °F - 12.9 °F 18% 29.86 in 10.0 mi SE 5.8 mph - N/A   Clear
1:56 AM 54.0 °F - 12.9 °F 20% 29.86 in 10.0 mi ENE 3.5 mph - N/A   Clear
2:56 AM 48.0 °F - 12.0 °F 24% 29.86 in 10.0 mi ENE 6.9 mph - N/A   Clear
3:56 AM 46.0 °F 41.9 °F 12.9 °F 26% 29.86 in 10.0 mi East 8.1 mph - N/A   Clear
4:56 AM 50.0 °F - 14.0 °F 24% 29.87 in 10.0 mi ESE 4.6 mph - N/A   Clear
5:56 AM 48.0 °F - 15.1 °F 27% 29.90 in 10.0 mi East 5.8 mph - N/A   Clear
6:56 AM 48.9 °F - 17.1 °F 28% 29.93 in 10.0 mi East 6.9 mph - N/A   Clear
7:56 AM 57.0 °F - 19.9 °F 24% 29.93 in 10.0 mi SE 4.6 mph - N/A   Clear
8:56 AM 62.1 °F - 16.0 °F 17% 29.94 in 10.0 mi South 5.8 mph - N/A   Clear
9:56 AM 66.0 °F - 12.9 °F 13% 29.92 in 10.0 mi South 8.1 mph - N/A   Clear
10:56 AM 73.0 °F - 14.0 °F 11% 29.90 in 10.0 mi SW 18.4 mph 27.6 mph N/A   Clear
11:56 AM 73.0 °F - 14.0 °F 11% 29.88 in 10.0 mi WSW 17.3 mph 29.9 mph N/A   Clear
12:56 PM 75.9 °F - 12.0 °F 9% 29.86 in 10.0 mi SW 17.3 mph 23.0 mph N/A   Clear
1:56 PM 78.1 °F - 10.9 °F 8% 29.82 in 10.0 mi SW 24.2 mph 36.8 mph N/A   Clear
2:56 PM 79.0 °F - 9.0 °F 7% 29.83 in 10.0 mi SW 18.4 mph 29.9 mph N/A   Clear
3:56 PM 78.1 °F - 10.9 °F 8% 29.82 in 10.0 mi WSW 16.1 mph 32.2 mph N/A   Clear
4:56 PM 75.9 °F - 10.0 °F 8% 29.83 in 10.0 mi West 23.0 mph 29.9 mph N/A   Clear
5:56 PM 73.0 °F - 12.9 °F 10% 29.86 in 10.0 mi West 15.0 mph 24.2 mph N/A   Clear
6:56 PM 66.9 °F - 14.0 °F 13% 29.90 in 10.0 mi WSW 4.6 mph - N/A   Clear
7:56 PM 62.1 °F - 12.9 °F 15% 29.91 in 10.0 mi SSW 8.1 mph - N/A   Clear
8:56 PM 61.0 °F - 15.1 °F 17% 29.93 in 10.0 mi WSW 12.7 mph - N/A   Clear
9:56 PM 59.0 °F - 15.1 °F 18% 29.95 in 10.0 mi WSW 8.1 mph - N/A   Clear
10:56 PM 60.1 °F - 16.0 °F 18% 29.94 in 10.0 mi West 3.5 mph - N/A   Clear
11:56 PM 53.1 °F - 16.0 °F 23% 29.97 in 10.0 mi ESE 8.1 mph - N/A   Clear